Regional Weather Roundup
Issued by NWS Charleston, SC

Current Version | Previous Version | Graphics & Text | Print | Product List | Glossary On
Versions: 1 2 3 4 5 6 7 8 9 10 11 12 13 14 15 16 17 18 19 20 21 22 23 24 25 26 27 28 29 30 31 32 33 34 35 36 37 38 39 40 41 42 43 44 45 46 47 48 49 50
000 ASUS42 KCHS 200327 RWRCHS Regional Weather Roundup National Weather Service Charleston SC 1000 PM EST MON FEB 19 2018 NOTE: "fair" indicates few or no clouds below 12,000 feet with no significant weather and/or obstructions to visibility. Not all stations are quality controlled. Use data with caution, especially dewpoint observations. SCZ027-030-031-034>040-042>050-200400- ...Southeast South Carolina... CITY SKY/WX TMP DP RH WIND PRES REMARKS N Charleston MOCLDY 65 63 93 SE5 30.38S FOG Waterfront Prk NOT AVBL Mount Pleasant FOG 63 63 100 CALM 30.39S VSB 1/2 Johns Island CLOUDY 63 63 100 CALM 30.39S FOG Pinopolis N/A 64 64 100 VRB3 30.30R Moncks Corner RAIN 63 63 100 SE3 30.38S VSB 1/2 Summerville FAIR 61 61 100 CALM 30.39S Beaufort MCAS MOCLDY 64 64 100 CALM 30.38R Beaufort Arpt FAIR 63 61 94 E3 30.37S FOG Hilton Head Is FOG 63 63 100 CALM 30.38S VSB 1/4 Walterboro FAIR 63 63 100 SE3 30.38F Allendale FAIR 66 64 94 SE5 30.36R ...Southern Midlands and Pee Dee... CITY SKY/WX TMP DP RH WIND PRES REMARKS Georgetown FOG 55 55 100 CALM 30.41S VSB 1/4 Kingstree FOG 63 61 94 E6 30.40R VSB 1/4 Orangeburg FAIR 61 58 90 CALM 30.37R Barnwell N/A 68 66 94 SE3 30.37R Aiken FAIR 63 61 94 E5 30.40R Manning FAIR 61 41 48 MISG 30.39R Columbia FAIR 65 61 87 E7 30.37R Sumter CLOUDY 61 57 88 E3 30.37S Florence CLOUDY 59 56 89 NE6 30.41R Myrtle Beach FAIR 60 59 96 SE3 30.42R N Myrtle Beach MOCLDY 62 61 96 E5 30.40S $$ GAZ063-065-086>088-099>101-113>116-118-119-134>141-150-200400- ...Southeast Georgia... CITY SKY/WX TMP DP RH WIND PRES REMARKS Savannah Arpt FOG 63 62 97 E6 30.37R VSB 1/2 Hunter AAF FOG 65 62 92 E6 30.34S VSB 3/4 Fort Stewart FAIR 63 62 97 E3 30.34R Statesboro FAIR 66 66 100 CALM 30.36R Sylvania FAIR 66 65 97 CALM 30.37R Claxton FAIR 67 65 95 CALM 30.35S ...CSRA, Central and far Southeast Georgia... CITY SKY/WX TMP DP RH WIND PRES REMARKS Thomson CLOUDY 60 58 94 N3 30.40R Augusta-Bush FAIR 63 61 93 SE5 30.34R Augusta-Daniel FAIR 68 62 81 SE6 30.35R Swainsboro FAIR 68 63 83 SE7 30.36R Vidalia FAIR 68 63 83 SE5 30.35R Eastman FAIR 68 55 62 SE5 30.35S Hazlehurst FAIR 69 60 73 SE8 30.33R Alma FAIR 68 63 84 SE7 30.33R Waycross FAIR 67 64 91 SE6 30.33S Jesup FAIR 66 63 88 CALM 30.35S Baxley FAIR 64 64 100 CALM 30.34R Brunswick FOG 61 59 94 E3 30.36S VSB 3/4 Saint Simons FAIR 65 64 97 SE6 30.35R $$ SCZ027-028-034-036>038-045-046-048>050-GAZ119-141-200400- ...Lake and Supplemental Coastal Observations... STATION/POSITION TIME TEMP WIND PRES WAVE SWELL AIR SEA DIR/SP/G HT/PER HT/PER/DIR (UTC) (F) (DEG/KT/KT) (MB) (FT/S) (FT/S/D) Winyah Bay 0245 58 60/ 3 1029.0S Lake Murray 0250 64 350/ 1/ 2 1027.8R ACE Basin NERRS 0245 64 CALM 1029.0R Fort Pulaski 0300 61 59 80/ 4/ 4 1028.6 Sapelo Island 0300 68 130/ 6 1028.0 $$ ANZ835-935-AMZ111-154-330-350-352-354-370-450-454-472-200400- ...C-MAN and Buoy Observations... STATION/POSITION TIME TEMP WIND PRES WAVE SWELL AIR SEA DIR/SP/G HT/PER HT/PER/DIR (UTC) (F) (DEG/KT/KT) (MB) (FT/S) (FT/S/D) Buoy 41004 0310 70 130/ 6/ 6 1029.4 Buoy 41008 0250 63 58 130/ 6/ 6 1027.6R 3/ 9 3/ 90/ 9 Folly Beach CMAN 0300 60 40/ 2/ 3 1029.4R Capers Nearshore 0308 56 58 40/ 4/ 6 1028.6R Fripp Nearshore 0208 58 58 110/ 6/ 8 1027.9R STATION/POSITION TIME TEMP WIND PRES WAVE SWELL AIR SEA DIR/SP/G HT/PER HT/PER/DIR (UTC) (F) (DEG/KT/KT) (MB) (FT/S) (FT/S/D) 5E St. Marys GA 0300 62 N/A 3/ 9 Frying Pan Buoy 0310 71 140/ 10/ 12 1029.7 Buoy 41025 0310 71 160/ 16/ 19 1031.4 Cape Lookout NC 0300 160/ 6/ 6 1030.7F Buoy 41002 0250 72 72 120/ 14/ 16 1031.0R 4/ 9 3/ 70/ 9 Buoy 41010 NOT AVBL St Augustine FL 0300 67 63 120/ 10/ 10 1027.3R $$

USA.gov is the U.S. government's official web portal to all federal, state and local government web resources and services.